COSMOS 249 DEB, 14410

Orbit data source: Space-Track

COSMOS 249 DEB, 14410 is space debris in LEO originally from a launch on Sun, 20 Oct 1968 UTC launched from the Tyuratam Missile And Space Complex (TTMTR). Debris objects in space refer to the collection of defunct objects orbiting the Earth. Examples of debris include non-operational satellites, rocket bodies, and fragments generated from explosions, collisions, or faulty payload assembly.

Loading next visibility...
Identifier
14410, 1968-091CL
Orbit
LEO
Country
Flag of CISCIS
Related business
Manufacturer
Unknown
Mission
Spacecraft
Bus & Motor
Unknown
Mass
Unknown
Launch date (UTC)
1968-10-20 (57 years ago)
Launch vehicle
Unknown
Launch site
Tyuratam Missile And Space Complex (TTMTR)
Object type
Payload
Rocket body
Debris
Shape & HBR
Unknown shape, 0.1 m
Radar Cross Section
Small (<0.1 m²)

Expand to show TLE details & history
Last TLE update: 20 hours ago

TLE from 20 hours ago
0 COSMOS 249 DEB
1 14410U 68091CL  25286.35738147  .00009035  00000-0  32778-2 0  9991
2 14410  62.2023 252.6052 0324372 220.1799 295.9437 14.08432519 69337
Epoch: 2025-10-13T08:34Z
TLE epoch observation values (Epoch: 2025-10-13T08:34:37.759Z)
Latitude
23.96332°
Longitude
-91.6909°
Altitude
769.949 km
Speed
7.521 km/s
True Right ascension
03h 56m 30s
True Declination
23° 50' 10"
Sunlit
Object was in full shadow at epoch
Visualization orbit readout
Latitude
Unknown
Longitude
Unknown
Altitude
Unknown
Speed
Unknown
Apparent Right ascension
Unknown
Apparent Declination
Unknown
Sunlit
N/A
Visualization observer readout
Local Sidereal Time
22:38:21
Azimuth
Unknown
Elevation
Unknown
Doppler factor
Unknown
Orbital elements
Apogee altitude
1,098.591 km
Perigee altitude
628.782 km
Semi-major axis
7,241.824 km
Eccentricity
0.03244
Inclination
62.2023°
RAAN
252.6052°
Arg. of periapsis
220.1799°
True anomaly
292.54294°
Mean anomaly
295.9437°
Eccentric anomaly
294.24917°
Mean motion
3.52185 °/min
Orbital period
102.22 mins
BSTAR
0.0032778
Loading maneuver chart data...
Computing Atmospheric mass density...

Documentation

Showing up to 5 results
|